Theta_e
313 314 320 322 320 318 318 319 318 321 322 321 321 352 352 349 349 355 353 352 353 353 349 343 340 336 329 324 332 337 338 339 339 339 339 338 336 329 327 325 324 324 324 325 325 326 327 330 331
313 318 321 318 319 318 318 318 321 321 319 318 327 341 350 351 353 356 354 353 352 351 350 344 339 336 327 323 329 336 338 339 339 339 338 336 334 327 325 325 325 324 324 324 325 326 327 327 328
316 319 319 320 319 319 320 320 320 319 317 318 333 334 340 340 345 351 354 353 352 349 352 344 339 336 328 322 325 334 337 337 337 337 335 331 329 325 324 325 325 325 324 323 323 324 328 330 331
319 319 317 320 320 320 320 320 318 319 322 322 330 335 336 349 349 350 350 350 348 345 352 342 338 337 332 322 321 326 334 335 336 335 331 328 326 324 324 325 325 325 324 323 322 321 322 323 324
318 317 319 319 320 320 319 318 316 323 321 324 326 324 322 324 347 350 351 351 350 345 344 340 339 339 337 332 322 321 323 326 325 325 328 326 324 324 324 325 326 325 325 323 322 321 321 321 323
317 316 317 318 319 318 318 316 316 320 321 322 323 321 320 319 323 343 349 349 350 349 346 342 340 340 339 337 334 325 321 322 322 322 324 324 324 324 325 326 327 326 324 323 322 321 320 321 325
318 318 319 318 318 319 318 316 318 318 320 321 319 322 319 319 319 321 339 349 350 351 351 348 342 341 341 339 337 336 331 323 322 322 323 323 324 324 326 327 327 327 324 322 323 321 320 321 325
314 317 316 316 319 319 317 317 316 318 319 317 318 320 320 318 319 320 320 327 335 345 350 352 350 343 342 342 340 337 336 334 328 323 323 323 324 324 325 326 327 326 325 323 323 321 320 320 322
314 317 317 317 318 320 317 320 317 318 318 318 318 318 318 318 318 318 319 321 325 327 327 338 343 352 348 344 343 340 338 337 335 331 324 323 323 324 325 326 326 326 325 324 323 322 320 320 320
316 317 316 314 316 320 319 317 319 319 320 320 319 318 318 319 318 318 319 323 318 318 320 322 336 345 351 350 347 345 341 337 337 336 335 329 325 323 325 325 326 326 325 324 323 323 321 320 320
313 318 315 315 315 318 320 319 317 320 322 319 319 318 318 318 318 318 318 317 317 318 317 317 318 326 349 352 351 348 347 342 337 336 336 336 333 328 324 325 326 326 326 325 323 324 322 320 320
320 317 317 319 318 318 319 319 320 318 319 318 319 318 319 319 319 319 318 318 318 318 317 318 317 318 322 336 350 351 350 348 344 337 334 335 336 335 332 325 325 326 328 327 324 324 323 321 320
319 319 318 318 317 317 317 318 319 320 322 321 320 320 320 320 320 320 320 320 319 318 317 318 317 317 317 318 319 322 336 345 347 347 343 336 333 334 336 334 327 325 328 330 328 324 324 323 321
317 317 318 317 319 318 319 318 319 320 322 322 322 321 321 320 320 320 321 321 321 320 318 317 317 317 317 317 317 319 322 329 338 345 347 346 341 336 333 336 334 329 327 331 332 329 324 324 323
317 321 320 320 319 321 318 321 324 321 322 322 321 321 320 320 319 320 320 320 321 321 321 320 318 317 317 317 317 317 319 325 335 343 345 347 345 343 336 333 337 335 331 330 333 333 328 324 324
320 319 322 320 320 319 320 323 323 321 322 322 321 321 321 319 319 319 319 319 319 320 321 322 321 318 317 317 318 318 318 321 323 324 336 345 344 343 341 332 333 336 336 332 332 334 332 326 325
321 322 321 320 318 320 321 322 323 322 322 322 321 321 321 321 320 318 319 319 319 319 319 320 321 322 320 317 317 318 319 319 321 324 323 326 336 341 343 336 332 333 336 336 334 334 334 328 331
323 323 321 320 320 320 320 323 324 322 322 321 321 321 321 320 320 318 318 318 318 319 319 319 319 320 322 323 320 318 319 319 320 322 324 325 325 328 331 343 338 334 335 337 336 335 334 332 333
320 321 322 321 319 320 321 322 325 323 322 322 321 321 321 321 320 318 318 318 318 318 319 320 319 319 319 320 323 323 319 319 322 321 323 324 325 331 335 339 342 336 333 330 337 336 335 335 338
320 321 321 320 319 319 321 321 324 324 323 322 321 321 321 320 320 319 318 318 319 319 320 320 320 320 320 320 319 320 323 322 320 324 324 323 326 326 328 332 341 343 339 337 334 337 336 335 339
320 321 321 320 319 319 320 324 326 324 323 322 321 321 320 320 319 319 318 317 319 319 320 320 321 321 321 321 320 320 320 321 323 322 325 327 326 329 332 330 334 339 342 341 341 337 337 339 341
321 318 319 320 322 323 321 323 322 326 325 323 322 320 319 319 320 318 318 317 317 319 319 320 321 321 321 321 321 321 321 320 321 323 324 323 327 329 328 329 331 333 334 343 342 339 337 338 341
320 319 321 322 323 323 322 324 324 325 327 324 322 319 318 318 319 318 318 318 317 319 319 319 319 320 321 320 321 321 321 322 321 320 322 324 323 323 324 327 328 329 329 334 342 339 334 331 339
318 321 320 318 319 325 323 324 321 324 325 324 322 320 318 318 318 318 318 318 317 318 319 319 319 320 320 320 320 321 321 321 322 323 322 322 324 324 322 325 328 327 330 328 336 341 337 332 332
321 323 326 321 324 322 320 324 324 323 324 322 321 319 318 318 317 318 318 318 317 317 318 318 319 318 318 320 320 321 321 320 321 322 322 322 324 324 324 322 325 325 324 326 325 337 340 335 327
321 323 333 331 328 326 322 325 326 324 323 321 320 319 318 318 317 318 318 318 317 317 318 318 318 317 317 318 320 320 321 321 321 321 322 322 323 324 324 324 323 324 325 324 328 333 333 339 333
323 326 321 327 319 325 322 321 320 322 323 321 318 318 318 318 316 318 318 318 317 317 317 317 315 316 315 316 318 320 321 321 321 321 321 322 322 323 323 323 323 324 324 325 326 325 328 332 338
322 321 325 325 330 326 321 321 324 322 323 320 319 318 318 317 316 317 318 318 316 316 316 316 316 315 314 314 317 317 319 321 320 321 321 322 322 322 323 323 322 323 324 323 324 325 323 333 337
321 321 322 322 324 328 327 323 321 323 322 320 318 317 317 316 316 317 318 317 315 315 315 315 314 313 312 313 313 317 319 319 319 321 322 321 322 322 321 320 323 330 326 325 325 323 325 335 336
319 321 321 325 325 325 324 326 321 323 321 318 318 317 316 317 317 317 318 316 314 314 313 313 313 312 312 315 316 318 318 318 319 320 321 322 322 323 322 325 329 331 329 327 324 326 330 335 338
Wind_Speed
3 5 4 3 3 0 1 3 2 10 4 1 11 1 3 7 3 3 7 6 1 12 14 16 16 15 15 17 20 22 22 22 20 18 15 14 13 13 14 13 13 12 12 12 11 11 10 9 8
6 6 4 2 1 2 3 4 11 10 12 15 1 2 4 4 6 3 4 2 4 11 14 15 16 14 14 18 20 21 21 21 19 17 16 14 14 13 14 14 13 12 12 12 11 11 10 9 8
7 6 1 3 2 2 3 6 12 12 8 4 2 6 4 4 6 5 8 5 4 10 14 15 15 13 13 16 20 21 21 20 18 17 16 15 15 14 14 14 13 13 12 12 11 10 10 9 8
6 3 5 0 7 3 1 8 10 9 4 5 3 6 4 8 4 8 9 9 6 6 12 14 14 13 12 14 17 20 20 19 18 18 17 16 15 14 14 14 13 13 13 12 11 10 9 9 9
5 4 3 3 2 1 3 7 9 10 3 6 2 6 5 10 8 9 10 9 7 6 10 13 13 13 12 12 14 17 19 20 19 18 18 17 16 15 14 14 13 13 13 13 12 11 10 9 9
4 2 2 4 3 2 4 6 6 8 7 7 9 5 4 6 7 6 7 6 6 3 5 9 12 14 13 13 13 15 17 18 19 19 18 18 18 17 15 14 14 14 14 14 13 12 11 10 9
4 2 3 4 4 3 4 7 6 6 9 10 3 3 4 7 6 6 5 5 4 4 4 7 12 15 16 16 16 15 16 17 18 19 19 19 19 18 17 16 15 16 16 16 15 14 13 12 11
4 3 4 2 6 5 5 5 4 6 6 7 4 2 3 7 7 2 2 4 6 6 7 9 11 15 18 19 19 18 18 18 18 19 20 20 20 20 19 19 17 18 17 17 16 15 15 14 13
4 2 4 5 4 3 3 4 4 6 5 6 3 3 2 3 4 4 3 2 4 6 7 9 12 14 17 19 20 20 20 20 20 20 21 22 23 24 23 22 20 19 18 18 18 17 16 15 14
2 1 3 1 1 2 3 2 5 4 8 2 6 2 2 5 3 4 6 6 7 6 6 8 12 16 16 18 20 22 22 23 24 24 24 25 26 26 26 25 23 21 19 19 19 18 18 18 16
2 2 5 5 6 3 3 4 3 4 3 9 12 8 9 7 5 8 8 8 10 10 10 9 9 12 17 19 20 22 23 25 27 27 28 28 28 28 28 28 26 25 22 20 20 20 20 20 18
2 1 3 2 3 2 3 3 2 6 8 11 6 6 7 8 8 8 7 8 11 13 12 11 10 12 13 15 19 20 23 23 26 28 29 30 31 31 31 31 29 27 25 23 21 21 21 21 20
2 1 4 4 8 8 4 2 6 11 9 11 9 8 11 9 7 6 6 6 8 10 12 13 14 13 14 16 19 20 23 26 25 26 27 29 32 34 33 33 32 30 28 25 23 22 22 22 21
1 5 8 2 3 1 1 5 1 9 7 14 14 15 15 15 15 10 7 6 5 7 10 14 18 17 17 16 20 22 24 25 27 28 27 28 28 32 35 35 34 32 30 27 24 23 22 23 23
2 2 1 2 4 2 2 6 8 4 8 14 14 14 14 16 17 17 15 14 11 8 8 12 17 20 22 21 20 22 24 24 26 28 29 26 26 26 28 35 35 34 32 29 27 25 24 24 24
1 1 3 4 4 4 4 4 5 5 7 13 13 13 14 16 18 19 18 16 14 12 9 9 12 17 23 26 24 23 26 26 25 26 28 29 27 26 25 29 35 34 33 31 29 27 26 26 26
3 3 1 0 1 2 5 1 4 3 7 11 12 13 14 14 17 22 22 22 20 18 15 12 11 14 18 24 28 28 27 28 29 28 27 27 29 29 27 25 31 33 32 33 31 29 27 26 26
1 1 2 2 1 2 0 3 5 3 6 8 10 12 15 17 20 23 25 25 25 24 22 19 16 16 18 21 25 30 32 32 32 32 31 28 28 29 28 27 27 32 32 33 33 32 27 26 24
3 2 5 5 1 4 2 5 8 5 4 9 12 15 16 18 19 24 27 28 28 26 27 24 21 19 20 22 24 26 30 34 37 37 36 33 31 30 30 28 28 29 34 35 34 32 30 27 24
5 4 3 6 4 4 5 7 7 5 4 7 10 14 17 21 22 24 29 31 30 30 28 27 24 21 19 22 25 29 31 31 37 38 40 38 37 34 32 31 30 29 31 35 35 34 33 30 26
2 2 2 5 4 3 4 3 8 7 4 3 7 10 13 18 25 28 31 33 31 30 29 28 25 22 17 18 22 25 29 34 34 37 41 41 40 39 38 35 32 32 32 34 37 36 35 25 23
2 3 5 6 6 10 3 4 5 11 7 2 8 12 15 18 20 23 27 32 32 30 28 26 25 22 17 16 20 22 25 28 30 35 35 39 43 41 40 39 36 34 33 33 36 33 32 30 23
3 7 3 4 5 4 1 3 2 3 6 2 10 16 19 20 19 24 27 29 30 29 28 28 26 23 20 18 18 21 23 26 28 32 38 38 37 45 41 41 37 36 34 34 34 32 33 36 34
8 3 2 1 1 3 2 4 2 0 1 4 11 17 19 22 23 23 24 27 29 26 27 26 27 26 23 20 19 21 23 24 27 29 33 37 36 37 45 41 39 37 37 35 35 32 32 41 39
8 5 3 2 1 2 1 6 3 2 1 6 12 18 20 22 25 26 30 32 32 29 28 24 24 26 24 23 21 21 25 27 28 29 31 33 34 36 38 43 42 39 36 34 32 33 31 36 39
3 3 1 3 3 6 4 4 2 0 3 8 13 17 24 25 27 25 29 31 34 29 28 24 25 27 27 27 24 25 24 29 30 28 30 31 32 35 37 37 42 40 37 36 32 32 30 34 37
3 2 2 2 0 3 2 2 5 2 3 14 21 22 24 25 25 26 29 31 33 29 27 25 28 29 30 31 31 28 27 28 31 31 31 30 33 36 39 39 34 38 39 35 34 31 32 31 32
3 7 0 3 3 4 3 7 5 4 8 14 19 23 24 26 25 26 29 31 31 27 26 26 28 28 34 34 32 31 31 32 29 33 32 32 30 30 35 40 38 34 37 38 35 33 30 30 34
3 2 4 1 1 2 4 4 3 3 10 13 20 24 27 28 27 28 30 32 31 28 28 29 31 34 38 34 30 31 33 34 33 32 31 31 29 29 31 33 35 33 34 35 33 31 28 30 33
1 1 1 1 0 3 2 7 1 5 11 15 21 25 28 26 26 28 31 33 33 32 34 36 36 42 39 35 35 36 36 34 33 32 28 28 31 30 33 31 30 31 31 32 30 29 30 33 36
Wind_Direction
162 152 133 123 209 253 59 70 278 307 299 233 316 264 92 65 28 25 2 132 73 189 177 177 176 178 180 180 179 176 175 175 175 179 183 179 175 172 172 172 170 171 173 172 177 171 170 162 157
158 145 124 109 206 183 101 317 312 307 300 302 270 227 74 66 36 26 351 151 56 177 179 181 178 181 183 184 186 183 180 181 184 187 192 189 187 185 183 182 181 182 184 181 185 184 173 167 171
148 144 121 89 108 120 100 329 309 318 331 231 140 63 44 1 18 25 35 57 58 168 181 183 181 184 188 190 192 192 191 190 194 198 199 196 196 195 193 192 192 190 192 194 194 196 181 176 183
143 109 60 146 106 119 42 346 333 337 54 51 102 72 68 28 37 57 47 52 77 143 180 184 187 190 195 197 198 199 201 202 203 205 206 206 204 204 202 202 202 198 197 204 205 207 200 190 194
119 82 93 96 112 214 254 305 339 19 48 37 100 86 75 43 69 65 73 78 85 141 178 189 196 203 205 208 209 209 209 211 213 213 210 207 207 209 211 212 211 208 206 208 212 216 219 209 203
77 80 127 132 139 300 292 323 333 28 38 44 78 79 46 49 75 115 99 98 100 120 188 207 210 213 215 218 220 220 220 220 221 220 217 213 210 212 216 219 218 215 215 212 215 219 228 229 218
94 80 110 131 132 103 19 335 16 8 34 30 14 79 45 68 72 76 135 150 153 179 203 226 226 222 222 222 226 228 228 228 228 227 224 221 219 219 220 224 224 222 220 217 217 222 225 234 235
94 90 132 166 148 101 4 351 345 2 30 7 59 106 79 52 57 78 136 173 193 213 231 238 244 239 232 228 227 229 231 232 233 232 230 228 227 227 226 228 228 227 226 223 222 225 230 230 236
80 103 146 143 147 80 339 5 4 331 331 341 47 104 52 9 10 14 356 279 244 238 235 241 245 253 248 243 238 235 235 236 234 233 231 231 231 232 231 232 234 233 231 229 227 227 233 237 237
79 113 125 179 152 86 319 323 322 328 331 334 321 300 338 336 295 311 303 281 280 290 288 277 257 239 247 246 244 240 238 236 237 237 235 234 234 235 236 237 236 237 235 233 232 232 233 240 240
100 109 170 193 218 214 282 274 212 271 332 2 320 320 324 342 290 302 295 272 260 261 253 268 279 272 250 244 241 245 245 244 241 237 237 238 239 239 238 238 236 237 238 237 234 236 236 240 244
156 124 177 204 201 259 239 272 358 34 326 316 319 308 323 340 356 345 332 305 282 279 270 252 262 255 249 254 258 261 261 258 253 250 247 243 241 240 241 241 239 239 239 239 239 239 240 242 246
118 210 259 287 290 258 262 266 115 34 46 58 65 67 54 48 36 14 356 325 296 278 264 249 264 258 260 260 261 260 256 257 261 263 258 252 250 249 245 244 243 241 240 241 241 242 242 244 247
328 265 275 310 312 215 287 93 156 28 43 65 65 62 58 53 45 40 22 2 319 283 265 248 253 253 253 262 265 264 261 262 257 257 263 262 257 258 251 246 245 244 243 243 245 246 245 245 247
327 299 342 74 351 50 137 71 25 56 63 66 66 57 56 52 43 36 26 16 2 343 308 275 252 246 243 247 255 261 265 260 260 259 258 261 263 265 258 249 246 246 245 245 246 248 247 246 248
40 92 159 43 9 31 328 117 46 39 70 64 57 51 46 40 32 26 18 10 5 354 338 311 286 261 244 238 242 249 257 260 258 261 265 261 257 260 261 251 246 247 247 246 246 248 250 248 246
47 104 46 85 38 354 8 116 135 72 72 65 51 43 35 32 25 20 14 5 358 350 336 322 298 280 266 251 243 242 247 252 254 255 257 262 265 265 260 253 249 247 244 247 246 247 251 249 247
121 305 234 268 28 298 202 177 161 114 77 70 50 35 27 19 11 10 7 1 356 348 337 324 311 289 274 268 259 251 248 248 250 253 254 255 258 261 265 259 248 247 247 244 246 245 248 246 248
204 235 261 291 223 274 258 219 184 149 86 55 38 26 18 9 360 1 1 357 351 344 339 329 315 299 282 272 266 263 257 252 251 251 253 253 255 257 260 258 256 245 247 247 246 246 243 243 240
202 232 240 284 276 283 311 283 186 176 91 45 26 15 5 358 357 356 356 354 349 344 339 334 325 313 297 278 270 265 260 254 251 251 249 248 250 253 257 258 255 253 248 249 247 240 242 240 236
190 255 285 290 312 239 300 232 194 187 177 57 21 3 358 356 351 351 351 350 346 343 339 335 327 320 313 293 278 269 266 261 255 254 253 247 248 249 253 256 254 254 252 252 252 245 239 237 239
274 359 275 281 306 316 351 303 224 207 217 248 359 1 358 354 352 349 348 344 341 337 336 334 327 327 319 309 297 286 279 274 263 256 259 258 252 248 251 254 255 254 257 255 253 249 242 242 241
347 323 316 322 286 288 169 257 104 166 226 322 358 357 356 353 348 346 344 342 337 334 329 332 329 325 319 312 304 291 287 284 281 270 258 254 256 254 250 249 252 249 253 255 250 250 236 229 239
312 262 294 109 207 238 86 332 36 154 113 344 349 346 344 345 343 340 338 338 334 331 331 326 326 326 323 314 309 301 292 290 285 279 268 257 250 252 249 245 248 247 248 253 253 249 240 231 232
6 357 326 258 266 346 112 295 331 284 186 356 331 332 337 341 337 335 337 337 336 331 330 324 322 324 322 314 304 298 296 299 294 284 279 262 252 248 249 245 242 243 243 248 255 252 241 237 233
18 4 96 295 316 315 298 229 111 323 202 332 331 335 334 335 337 331 333 334 334 328 329 327 320 319 322 319 305 298 293 295 293 288 282 271 254 249 247 252 243 243 244 246 250 252 252 245 233
115 72 57 114 90 268 297 255 262 192 255 335 341 333 332 333 335 333 332 333 330 326 325 320 322 315 318 314 309 298 295 294 293 292 282 271 261 252 245 244 247 242 241 244 246 249 254 247 234
51 139 112 44 336 297 285 300 264 351 344 340 336 332 331 333 332 332 332 331 331 325 323 320 319 316 318 315 308 298 290 292 293 293 287 269 261 255 243 240 244 242 239 240 242 245 253 244 239
169 131 79 135 195 298 307 298 207 252 346 330 328 335 334 330 332 331 332 333 331 328 326 324 320 316 322 318 309 303 297 293 291 286 286 267 261 249 246 242 240 237 235 233 232 242 244 230 235
234 158 100 204 180 228 285 275 240 244 323 330 333 331 331 326 329 332 333 333 333 329 327 322 322 324 322 321 311 306 301 300 291 286 280 267 265 254 244 238 228 227 232 225 224 235 233 232 232